Flag for Brunei Weather past 2 weeks in Bandar Seri Begawan, Brunei

Now
77 °F

Partly cloudy.


Feels Like: 78 °F
Forecast: 78 / 92 °F
Wind: 2 mph from Southwest

Location: Brunei Airport

Current Time: Apr 1, 2015 at 5:40:43 AM

Latest Report: Apr 1, 2015 at 4:30 AM


Visibility: 5 mi

Pressure: 29.80 "Hg

Humidity: 94%

Dew point: 75 °F

Location of Bandar Seri BegawanLocation

Historic Weather in Bandar Seri Begawan — Graph

°F

Bandar Seri Begawan temperature yesterday

Maximum temperature yesterday: 90 °F (at 10:00 AM)
Minimum temperature yesterday: 77 °F (at 6:00 AM)
Average temperature yesterday: 82 °F

Past Weeks' High & Low Weather Summary

 TemperatureHumidityPressure
High90 °F (Mar 20, 11:30 AM)100% (Mar 17, 4:00 AM)29.95 "Hg (Mar 17, 4:00 AM)
Low73 °F (Mar 19, 4:00 AM)52% (Mar 20, 11:30 AM)29.77 "Hg (Mar 18, 4:30 PM)
Average82 °F82%29.87 "Hg
* Reported Mar 17 4:00 AM — Apr 1 4:30 AM, Bandar Seri Begawan, Weather by CustomWeather, © 2015

Note: Actual official high and low records may vary slightly from our data, if they occured in-between our weather recording intervals... More about our weather records

Advertising

Bandar Seri Begawan weather history for previous 24 hours

 ConditionsComfort  
Time TempWeatherWind HumidityBarometerVisibility
4:30 AM
Wed, Apr 1
77 °FPartly cloudy.2 mph94%29.80 "Hg5 mi
4:00 AM77 °FPartly cloudy.3 mph94%29.80 "Hg4 mi
3:30 AM77 °FPartly cloudy.3 mph94%29.83 "Hg4 mi
3:00 AM77 °FPartly cloudy.2 mph94%29.83 "Hg4 mi
2:30 AM77 °FPartly cloudy.5 mph94%29.83 "Hg4 mi
2:00 AM77 °FPartly cloudy.5 mph100%29.83 "Hg4 mi
1:30 AM79 °FPartly cloudy.3 mph94%29.83 "Hg4 mi
1:00 AM79 °FPassing clouds.2 mph94%29.83 "Hg4 mi
12:30 AM79 °FPassing clouds.2 mph94%29.86 "Hg4 mi
12:00 AM79 °FPassing clouds.3 mph94%29.86 "Hg4 mi
11:30 PM
Tue, Mar 31
79 °FPassing clouds.2 mph94%29.86 "Hg4 mi
11:00 PM79 °FPassing clouds.5 mph94%29.86 "Hg4 mi
10:30 PM79 °FPassing clouds.3 mph94%29.86 "Hg4 mi
10:00 PM81 °FPassing clouds.5 mph89%29.86 "Hg4 mi
9:30 PM81 °FPassing clouds.5 mph89%29.86 "Hg4 mi
9:00 PM81 °FPassing clouds.6 mph89%29.86 "Hg4 mi
8:30 PM81 °FPartly cloudy.7 mph89%29.86 "Hg4 mi
8:00 PM82 °FPartly cloudy.8 mph89%29.86 "Hg4 mi
7:30 PM82 °FPassing clouds.8 mph89%29.83 "Hg4 mi
7:00 PM82 °FPartly cloudy.6 mph89%29.83 "Hg4 mi
6:30 PM82 °FPartly cloudy.3 mph89%29.83 "Hg4 mi
6:00 PM82 °FBroken clouds.3 mph84%29.83 "Hg4 mi
5:30 PM82 °FThunderstorms. Broken clouds.5 mph89%29.83 "Hg4 mi
5:00 PM84 °FThunderstorms. Partly sunny.8 mph79%29.80 "Hg4 mi
4:30 PM84 °FThunderstorms. Broken clouds.16 mph79%29.77 "Hg4 mi
4:00 PM86 °FThunderstorms. Partly sunny.16 mph75%29.77 "Hg4 mi
3:30 PM86 °FPartly sunny.15 mph75%29.80 "Hg4 mi
3:00 PM88 °FPartly sunny.15 mph70%29.80 "Hg4 mi
2:30 PM88 °FPartly sunny.14 mph70%29.80 "Hg4 mi
2:00 PM88 °FPartly sunny.14 mph70%29.83 "Hg4 mi
1:30 PM88 °FPartly sunny.12 mph70%29.83 "Hg4 mi
1:00 PM88 °FPartly sunny.12 mph70%29.83 "Hg4 mi
12:30 PM90 °FPartly sunny.12 mph67%29.86 "Hg4 mi
12:00 PM88 °FPartly sunny.10 mph70%29.86 "Hg6 mi
11:30 AM88 °FPartly sunny.10 mph70%29.86 "Hg6 mi
10:30 AM90 °FPartly sunny.3 mph63%29.89 "Hg6 mi
10:00 AM90 °FPartly sunny.5 mph63%29.89 "Hg6 mi
9:30 AM88 °FPartly sunny.5 mph66%29.89 "Hg6 mi
9:00 AM84 °FPartly sunny.3 mph74%29.89 "Hg6 mi
8:30 AM82 °FPartly sunny.6 mph84%29.89 "Hg6 mi
8:00 AM81 °FPartly sunny.6 mph89%29.86 "Hg6 mi
7:30 AM79 °FBroken clouds.5 mph89%29.86 "Hg5 mi
7:00 AM77 °FBroken clouds.5 mph100%29.86 "Hg5 mi
6:30 AM77 °FBroken clouds.5 mph94%29.83 "Hg4 mi
6:00 AM77 °FPassing clouds.3 mph94%29.83 "Hg4 mi
5:30 AM79 °FPassing clouds.3 mph89%29.83 "Hg4 mi
5:00 AM79 °FPassing clouds.3 mph89%29.80 "Hg4 mi
Weather by CustomWeather, © 2015

See weather overviewHow to use our weather pages